Home   Weather   Townsville   Past weeks

Flag for Australia Past Weather in Townsville, Queensland, Australia — Yesterday and Last 2 Weeks

Now
84 °F

Clear.


Feels Like: 92 °F
Forecast: 82 / 88 °F
Wind: 13 mph from East

Location: Townsville Amo

Current Time: Jan 24, 2017 at 9:20:55 pm

Latest Report: Jan 24, 2017 at 9:00 pm


Visibility: N/A

Pressure: 29.86 "Hg

Humidity: 74%

Dew Point: 75 °F

Location of TownsvilleLocation

Past Weather in Townsville — Graph

°F

Townsville Temperature Yesterday

Maximum temperature yesterday: 90 °F (at 1:00 pm)
Minimum temperature yesterday: 77 °F (at 11:30 pm)
Average temperature yesterday: 85 °F

High & Low Weather Summary for the Past Weeks

 TemperatureHumidityPressure
High91 °F (Jan 10, 12:30 pm)100% (Jan 12, 6:15 am)29.92 "Hg (Jan 12, 6:15 am)
Low75 °F (Jan 15, 10:00 am)38% (Jan 19, 12:30 pm)29.68 "Hg (Jan 20, 3:00 pm)
Average83 °F78%29.80 "Hg
* Reported Jan 9 8:00 pm — Jan 24 8:00 pm, Townsville, Weather by CustomWeather, © 2017

Note: Actual official high and low records may vary slightly from our data, if they occured in-between our weather recording intervals... More about our weather records

Advertising

Townsville Weather History for the Previous 24 Hours

Scroll right to see more
 ConditionsComfort  
Time TempWeatherWind HumidityBarometerVisibility
8:00 pm
Tue, Jan 24
84 °FPassing clouds.10 mph74%29.86 "HgN/A
7:30 pm82 °FPassing clouds.12 mph79%29.86 "HgN/A
7:00 pm84 °FClear.10 mph74%29.86 "HgN/A
6:30 pm84 °FSunny.12 mph70%29.83 "HgN/A
6:00 pm84 °FSunny.10 mph74%29.83 "HgN/A
5:30 pm84 °FPassing clouds.14 mph70%29.80 "HgN/A
5:00 pm86 °FPassing clouds.16 mph70%29.80 "HgN/A
4:30 pm88 °FPassing clouds.16 mph66%29.80 "HgN/A
4:00 pm88 °FScattered clouds.15 mph66%29.80 "HgN/A
3:30 pm88 °FScattered clouds.15 mph66%29.83 "HgN/A
3:00 pm88 °FBroken clouds.14 mph66%29.83 "HgN/A
2:30 pm88 °FPartly sunny.14 mph66%29.83 "HgN/A
2:00 pm88 °FPartly sunny.13 mph66%29.86 "HgN/A
1:30 pm88 °FBroken clouds.10 mph62%29.86 "HgN/A
1:00 pm88 °FBroken clouds.13 mph62%29.86 "HgN/A
12:30 pm86 °FBroken clouds.13 mph66%29.86 "HgN/A
12:00 pm86 °FBroken clouds.12 mph66%29.89 "HgN/A
11:30 am86 °FPartly sunny.10 mph66%29.89 "HgN/A
11:00 am86 °FPartly sunny.13 mph62%29.89 "HgN/A
10:30 am84 °FPartly sunny.14 mph70%29.92 "HgN/A
10:00 am84 °FScattered clouds.16 mph70%29.92 "HgN/A
9:30 am84 °FPartly sunny.15 mph66%29.92 "HgN/A
9:00 am84 °FScattered clouds.9 mph70%29.92 "HgN/A
8:30 am82 °FScattered clouds.5 mph84%29.92 "HgN/A
8:00 am81 °FPartly sunny.3 mph89%29.92 "HgN/A
7:30 am79 °FPartly sunny.5 mph94%29.92 "HgN/A
7:00 am79 °FScattered showers. Broken clouds.2 mph94%29.92 "HgN/A
6:30 am77 °FBroken clouds.6 mph100%29.89 "HgN/A
6:21 am77 °FBroken clouds.6 mph100%29.89 "HgN/A
6:00 am77 °FScattered showers. Cloudy.6 mph100%29.89 "Hg6 mi
5:55 am77 °FDrizzle. Cloudy.5 mph100%29.89 "HgN/A
5:30 am77 °FSprinkles. Overcast.No wind100%29.86 "HgN/A
5:15 am77 °FSprinkles. Passing clouds.No wind100%29.89 "HgN/A
5:00 am77 °FThundershowers. Overcast.2 mph100%29.86 "HgN/A
4:30 am77 °FSprinkles. Partly cloudy.7 mph94%29.86 "HgN/A
4:00 am77 °FSprinkles. Passing clouds.7 mph94%29.86 "HgN/A
3:58 am77 °FRain showers. Mostly cloudy.8 mph94%29.86 "HgN/A
3:39 am77 °FLots of rain. Passing clouds.10 mph94%29.86 "Hg4 mi
3:00 am79 °FPartly cloudy.10 mph94%29.86 "HgN/A
2:30 am79 °FSprinkles. Partly cloudy.7 mph94%29.86 "HgN/A
2:00 am79 °FPartly cloudy.5 mph94%29.86 "HgN/A
1:30 am77 °FLots of rain. Partly cloudy.10 mph94%29.86 "Hg2 mi
1:00 am79 °FSprinkles. Passing clouds.5 mph94%29.86 "HgN/A
12:30 am79 °FPartly cloudy.10 mph89%29.89 "HgN/A
12:14 am79 °FSprinkles. Partly cloudy.15 mph89%29.89 "HgN/A
12:03 am79 °FSprinkles. Partly cloudy.12 mph94%29.89 "HgN/A
11:30 pm
Mon, Jan 23
77 °FLots of rain. Overcast.2 mph100%29.89 "Hg1 mi
11:11 pm79 °FHeavy rain. Passing clouds.16 mph94%29.89 "Hg4 mi
11:00 pm81 °FPassing clouds.10 mph84%29.89 "HgN/A
10:30 pm81 °FPartly cloudy.8 mph84%29.89 "HgN/A
10:00 pm81 °FPartly cloudy.13 mph79%29.89 "HgN/A
9:30 pm84 °FPartly cloudy.10 mph70%29.89 "HgN/A
9:00 pm84 °FPassing clouds.12 mph70%29.86 "HgN/A
Weather by CustomWeather, © 2017

See weather overviewHow to use our weather pages